OBJECT C, 53446

Orbit data source: Space-Track

You're viewing an Uncataloged Satellite

Recently launched and/or uncataloged satellites may have evolving metadata. Metadata may include but not limited to: Owner, Maufacturer, Bus, Motor, and Mission.

OBJECT C, 53446 is a satellite owned by Changguang WJ (CN) in SSO that was launched on Wed, 10 Aug 2022 UTC via a CHANG ZHENG 6 launch vehicle from the Taiyaun Space Center, China (TSC). Unknown objects in Earth's orbit typically refer to objects detected orbiting the Earth but have not yet been identified or cataloged. These objects could be anything from previously untracked satellites, spent rocket stages, debris from satellite collisions, or even natural meteoroids temporarily captured by Earth's gravity.

Loading next visibility...
Identifier
53446, 2022-098C
Orbit
SSO
Country
Flag of CNCN / PRC
Related business
Manufacturer
Changguang WJ
Mission
Operational Commercial Imaging
Bus & Motor
JL-1, Unknown motor
Mass
42 kg wet, 42 kg dry
Launch date (UTC)
2022-08-10 (3 years ago)
Launch vehicle
CHANG ZHENG 6
Launch site
Taiyaun Space Center, China (TSC)
Object type
Unknown
Shape & HBR
Box + 2 Pan, 0.8 m
Radar Cross Section
2.000 m², Medium (>0.1 m² and < 1m²)

Expand to show TLE details & history
Last TLE update: 7 hours ago

TLE from 7 hours ago
0 OBJECT C
1 53446U 22098C   25298.98047288  .00037658  00000-0  86270-3 0  9990
2 53446  97.5472  51.6857 0003801 162.9944 197.1431 15.42672190178275
Epoch: 2025-10-25T23:31Z
TLE epoch observation values (Epoch: 2025-10-25T23:31:52.856Z)
Latitude
-0.00005°
Longitude
24.11224°
Altitude
443.82 km
Speed
7.644 km/s
True Right ascension
03h 26m 44s
True Declination
0° 00' 00"
Sunlit
Object was in full shadow at epoch
Visualization orbit readout
Latitude
Unknown
Longitude
Unknown
Altitude
Unknown
Speed
Unknown
Apparent Right ascension
Unknown
Apparent Declination
Unknown
Sunlit
N/A
Visualization observer readout
Local Sidereal Time
01:34:59
Azimuth
Unknown
Elevation
Unknown
Doppler factor
Unknown
Orbital elements
Apogee altitude
437.758 km
Perigee altitude
432.579 km
Semi-major axis
6,813.305 km
Eccentricity
0.00038
Inclination
97.5472°
RAAN
51.6857°
Arg. of periapsis
162.9944°
True anomaly
197.13027°
Mean anomaly
197.1431°
Eccentric anomaly
197.13668°
Mean motion
3.85928 °/min
Orbital period
93.28 mins
BSTAR
0.0008627
Loading maneuver chart data...
Computing Atmospheric mass density...
Loading historical data...
Loading historical data...
Loading historical data...
Loading historical data...
Loading historical data...
Loading historical data...
Loading historical data...

Documentation

Showing up to 5 results
|